Location: Waco, TX
(31.5480°N, 97.1670°W)
Time: 00:50:53
(UTC-06:00)

ISS - Pass Details

Date: 15 January 2018
Orbit: 402 x 407 km, 51.6° (Epoch: 21 January)

Event Time Altitude Azimuth Distance (km) Brightness Sun altitude
Rises 07:43:07 0° 297° (WNW) 2,321 -0.7 2.0°
Reaches altitude 10° 07:45:39 10° 277° (W) 1,459 -1.6 2.5°
Maximum altitude 07:47:55 18° 233° (SW) 1,089 -1.9 2.9°
Drops below altitude 10° 07:50:11 10° 189° (S) 1,454 -0.7 3.3°
Sets 07:52:42 0° 168° (SSE) 2,310 0.6 3.8°
